AirNav   Air Wisconsin Up To $57,000 Bonus
 
 1661 users online  

MN67 Sky Park Airport
Lydia, Minnesota, USA

GOING TO LYDIA?


FAA INFORMATION EFFECTIVE 07 NOVEMBER 2019

Location

FAA Identifier: MN67
Lat/Long: 44-39-34.8660N 093-31-05.8300W
44-39.581100N 093-31.097167W
44.6596850,-93.5182861
(estimated)
Elevation: 940 ft. / 287 m (estimated)
Variation: 03E (1985)
From city: 1 mile NW of LYDIA, MN
Time zone: UTC -6 (UTC -5 during Daylight Saving Time)
Zip code: 55352

Airport Operations

Airport use: Private use. Permission required prior to landing
Activation date: 10/1970
Control tower: no
ARTCC: MINNEAPOLIS CENTER
FSS: PRINCETON FLIGHT SERVICE STATION
Attendance: UNATNDD
Wind indicator: yes
Segmented circle: no

Airport Communications

WX ASOS at FCM (10 nm N): PHONE 952-941-4156
WX AWOS-3 at LVN (13 nm E): 118.0 (952-469-5850)
WX ASOS at MSP (18 nm NE): PHONE 612-713-4174

Nearby radio navigation aids

VOR radial/distance  VOR name  Freq  Var
FCMr197/10.4FLYING CLOUD VOR/DME117.7001E
FGTr271/14.5FARMINGTON VORTAC115.7006E
MSPr218/18.6MINNEAPOLIS VOR/DME115.3002E
FOWr345/28.0HALFWAY VOR/DME111.2002E
GEPr186/29.8GOPHER VORTAC117.3006E
MKTr026/31.3MANKATO VOR/DME110.8007E

 
NDB name  Hdg/Dist  Freq  Var  ID
GLENCOE101/25.040703EGYL --. -.-- .-..
HOPEY239/27.740003EPPI .--. .--. ..

Airport Services

Airframe service: NONE
Powerplant service: NONE

Runway Information

Runway 18/36

Dimensions: 3400 x 150 ft. / 1036 x 46 m
Surface: turf
RUNWAY 18  RUNWAY 36
Traffic pattern: leftleft
Obstructions: pline road, 1500 ft. from runwaypline road, 1500 ft. from runway

Airport Ownership and Management from official FAA records

Ownership: Privately-owned
Owner: SKYPARK, INC.
19916 XEON AVE
JORDAN, MN 55352
Phone 952-905-4409
Manager: BRYAN BOURN
19916 XEON AVE
JORDAN, MN 55352
Phone 952-905-4409

Airport Operational Statistics

Aircraft based on the field: 20
Single engine airplanes: 20
    

Additional Remarks

FOR CD CTC MINNEAPOLIS ARTCC AT 651-463-5588.

Instrument Procedures

There are no published instrument procedures at MN67.

Some nearby airports with instrument procedures:

KFCM - Flying Cloud Airport (10 nm N)
KLVN - Airlake Airport (13 nm E)
KMSP - Minneapolis-St Paul International/Wold-Chamberlain Airport (18 nm NE)
KFBL - Faribault Municipal Airport-Liz Wall Strohfus Field (22 nm SE)
KSGS - South St Paul Municipal Airport-Richard E Fleming Field (24 nm NE)
 
Loc | Ops | Rwys | IFR | FBO | Links
Com | Nav | Svcs | Stats | Notes
Area around MN67 (Sky Park Airport)
 
Road maps at: MapQuest Bing Google
 
Aerial photo
No photo
 
Sectional chart

 
Airport distance calculator
Flying to Sky Park Airport? Find the distance to fly.

From to MN67

Sunrise and sunset
Times for 21-Nov-2019
 Local
(UTC-6)
 Zulu
(UTC)
Morning civil twilight06:4812:48
Sunrise07:2013:20
Sunset16:4022:40
Evening civil twilight17:1223:12

Current date and time
Zulu (UTC)  21-Nov-2019 15:56:31
Local (UTC-6)  21-Nov-2019 09:56:31
 
METAR
KFCM 
11nm N 
211533Z 33013G22KT 6SM BR OVC013 02/00 A2985 RMK AO2 PK WND 32027/1510 UPB00E13 PRESRR P0000 I1000 T00170000
KLVN 
13nm E 
211455Z AUTO 33014G17KT 7SM -RA BKN014 OVC021 02/ A2981 RMK AO2
KMSP 
18nm NE 
211516Z 34014G24KT 9SM -SNRA OVC013 02/00 A2982 RMK AO2 RAB16SNB14 P0001 T00170000
KSGS 
19nm NE 
211535Z AUTO 34014G20KT 7SM -SN OVC014 02/02 A2982 RMK AO2 T00150015
TAF
KMSP 
18nm NE 
211255Z 2113/2218 33018G27KT P6SM OVC012 TEMPO 2113/2116 4SM -SN BR OVC008 FM212200 32015G25KT P6SM FEW025 FM220200 31012KT P6SM SKC FM220900 30005KT P6SM SKC
NOTAMs
Click for the latest NOTAMs
NOTAMs are issued by the DoD/FAA and will open in a separate window not controlled by AirNav.

 

 
 

Would you like to see your business listed on this page?

 If your business provides an interesting product or service to pilots, flight crews, aircraft, or users of the Sky Park Airport, you should consider listing it here.  To start the listing process, click on the button below
 
Add a business
 

Other Pages about Sky Park Airport

Update a link
 
Copyright © AirNav, LLC. All rights reserved. Privacy Policy  Contact